sat.trackr.live / text

‹ back to catalog

OCEANSAT-2

NORAD 35931 · 2009-051A

PAYLOAD ACTIVE UNKNOWN

§ Identity

Operator
Country
IND
Launch date
2009-09-23
Launch site
SRILR
Launch vehicle
Mass (kg)
RCS (m²)
4.06

Purposes: earth_obs

External: N2YO · Heavens-Above · Gunter

§ Orbital elements

Epoch: 2026-09-15T21:57:32.812704Z

Period
102.88 min
Inclination
98.2421°
Eccentricity
0.0015404
Mean motion
13.99666732 rev/d
Perigee alt
883.7 km
Apogee alt
906.2 km
Semi-major
7,273.1 km
B*
-7.4314e-5
RAAN
236.7431°
Arg perigee
342.3574°
Mean anomaly
17.7055°
Rev number
89,202

§ Raw data

OCEANSAT-21 35931U 09051A   26258.91496311 -.00000146  00000+0 -74314-4 0  99982 35931  98.2421 236.7431 0015404 342.3574  17.7055 13.99666732892025

JSON: /api/v1/satellites/35931 · /tle

For live sub-satellite position, see the globe view (requires WebGL).

§ Visibility from observer

Set your observer location to see the next 7 days of passes ≥ 10°. The values pass through the URL so the page stays shareable.

No JS? Fill the form by hand. The geolocation button needs JavaScript.

§ Radio — SatNOGS DB

ModeDescriptionDownlinkUplink
FM Mode S dumps 2.245 GHz
BPSK S-band telemetry 2.250 GHz

2 transmitters · refreshed weekly from db.satnogs.org